�������l�o���
Date,Time,MP-1(��Sv/h),MP-2(��Sv/h),MP-3(��Sv/h),MP-4(��Sv/h),MP-5(��Sv/h),MP-6(��Sv/h),MP-7(��Sv/h),MP-8(��Sv/h),����,����(m/s),���J
2017/09/14,00:00,0.942,1.499,0.978,1.777,1.240,0.516,0.941,0.867,�k�k��,1.2,��
2017/09/14,00:10,0.941,1.498,0.976,1.777,1.240,0.516,0.941,0.868,���k��,2.0,��
2017/09/14,00:20,0.942,1.499,0.977,1.777,1.240,0.515,0.943,0.865,��,1.5,��
2017/09/14,00:30,0.943,1.497,0.977,1.776,1.239,0.515,0.940,0.867,���쐼,1.7,��
2017/09/14,00:40,0.939,1.497,0.978,1.774,1.241,0.514,0.942,0.868,��쐼,1.7,��
2017/09/14,00:50,0.942,1.501,0.978,1.777,1.241,0.514,0.942,0.865,��,1.4,��
2017/09/14,01:00,0.941,1.498,0.977,1.778,1.241,0.517,0.941,0.869,��쓌,0.9,��
2017/09/14,01:10,0.940,1.497,0.977,1.776,1.241,0.515,0.943,0.867,��,2.0,��
2017/09/14,01:20,0.941,1.497,0.978,1.778,1.241,0.515,0.943,0.868,��,3.8,��
2017/09/14,01:30,0.941,1.497,0.979,1.777,1.240,0.516,0.944,0.869,��,3.0,��
2017/09/14,01:40,0.940,1.498,0.980,1.776,1.240,0.515,0.943,0.867,��,1.7,��
2017/09/14,01:50,0.941,1.497,0.976,1.778,1.241,0.514,0.941,0.867,��,0.6,��
2017/09/14,02:00,0.940,1.498,0.975,1.777,1.240,0.514,0.942,0.867,-,CALM,��
2017/09/14,02:10,0.941,1.499,0.977,1.776,1.240,0.515,0.942,0.868,���쐼,1.4,��
2017/09/14,02:20,0.942,1.497,0.976,1.775,1.240,0.514,0.942,0.867,��,3.9,��
2017/09/14,02:30,0.940,1.499,0.977,1.777,1.239,0.513,0.942,0.868,��,4.5,��
2017/09/14,02:40,0.941,1.499,0.978,1.776,1.241,0.515,0.941,0.868,���쐼,3.4,��
2017/09/14,02:50,0.942,1.498,0.977,1.776,1.242,0.514,0.942,0.868,���쐼,0.6,��
2017/09/14,03:00,0.940,1.497,0.978,1.776,1.240,0.514,0.943,0.868,���쐼,1.1,��
2017/09/14,03:10,0.941,1.498,0.979,1.774,1.238,0.514,0.941,0.868,���쐼,1.4,��
2017/09/14,03:20,0.940,1.498,0.976,1.780,1.241,0.513,0.943,0.868,��,2.2,��
2017/09/14,03:30,0.941,1.498,0.978,1.776,1.240,0.514,0.944,0.869,�k��,1.4,��
2017/09/14,03:40,0.941,1.499,0.976,1.777,1.242,0.515,0.942,0.869,�k�k��,2.0,��
2017/09/14,03:50,0.941,1.498,0.977,1.778,1.240,0.515,0.942,0.867,���k��,2.6,��
2017/09/14,04:00,0.941,1.495,0.977,1.774,1.239,0.515,0.943,0.868,���k��,3.5,��
2017/09/14,04:10,0.940,1.498,0.975,1.775,1.241,0.514,0.942,0.868,���k��,4.4,��
2017/09/14,04:20,0.940,1.498,0.976,1.778,1.239,0.516,0.943,0.868,���k��,6.5,��
2017/09/14,04:30,0.940,1.497,0.977,1.775,1.240,0.514,0.943,0.868,���k��,8.4,��
2017/09/14,04:40,0.940,1.498,0.976,1.778,1.242,0.515,0.943,0.868,���k��,7.7,��
2017/09/14,04:50,0.940,1.499,0.977,1.775,1.239,0.514,0.943,0.868,���k��,7.8,��
2017/09/14,05:00,0.943,1.497,0.978,1.777,1.241,0.514,0.944,0.866,���k��,8.2,��
2017/09/14,05:10,0.942,1.500,0.978,1.779,1.241,0.515,0.943,0.868,���k��,8.0,��
2017/09/14,05:20,0.943,1.495,0.978,1.780,1.240,0.516,0.943,0.868,��,8.2,��
2017/09/14,05:30,0.941,1.499,0.979,1.779,1.243,0.516,0.942,0.867,��,8.3,��
2017/09/14,05:40,0.940,1.497,0.976,1.780,1.242,0.515,0.942,0.869,��,7.6,��
2017/09/14,05:50,0.942,1.499,0.978,1.779,1.242,0.515,0.945,0.867,���k��,8.5,��
2017/09/14,06:00,0.941,1.497,0.978,1.780,1.238,0.514,0.944,0.868,��,8.3,��
2017/09/14,06:10,0.941,1.501,0.978,1.779,1.241,0.513,0.942,0.869,���k��,9.2,��
2017/09/14,06:20,0.944,1.498,0.980,1.780,1.240,0.514,0.942,0.866,���k��,9.8,��
2017/09/14,06:30,0.941,1.499,0.976,1.779,1.242,0.514,0.943,0.868,���k��,8.4,��
2017/09/14,06:40,0.943,1.497,0.978,1.779,1.241,0.515,0.941,0.870,���k��,7.1,��
2017/09/14,06:50,0.943,1.500,0.980,1.782,1.239,0.515,0.942,0.869,���k��,7.5,��
2017/09/14,07:00,0.942,1.501,0.977,1.782,1.237,0.513,0.944,0.869,���k��,5.6,��
2017/09/14,07:10,0.942,1.499,0.979,1.782,1.239,0.512,0.943,0.868,���k��,4.5,��
2017/09/14,07:20,0.942,1.498,0.979,1.783,1.243,0.516,0.942,0.870,�k��,3.1,��
2017/09/14,07:30,0.941,1.501,0.979,1.779,1.240,0.514,0.944,0.871,�k�k��,2.3,��
2017/09/14,07:40,0.941,1.500,0.979,1.782,1.239,0.513,0.941,0.869,�k�k��,2.3,��
2017/09/14,07:50,0.942,1.499,0.978,1.784,1.240,0.513,0.944,0.869,�k�k��,2.6,��
2017/09/14,08:00,0.941,1.498,0.978,1.781,1.240,0.514,0.942,0.868,�k�k��,4.2,��
2017/09/14,08:10,0.939,1.498,0.978,1.783,1.243,0.513,0.941,0.867,�k,2.9,��
2017/09/14,08:20,0.940,1.496,0.979,1.783,1.242,0.513,0.940,0.868,�k,2.5,��
2017/09/14,08:30,0.937,1.495,0.978,1.782,1.241,0.512,0.941,0.868,�k�k��,4.5,��
2017/09/14,08:40,0.938,1.496,0.977,1.783,1.236,0.514,0.940,0.868,�k�k��,4.2,��
2017/09/14,08:50,0.941,1.495,0.976,1.779,1.240,0.512,0.941,0.867,�k�k��,3.9,��
2017/09/14,09:00,0.940,1.493,0.976,1.781,1.241,0.512,0.944,0.867,�k,3.1,��
2017/09/14,09:10,0.941,1.495,0.976,1.782,1.238,0.514,0.942,0.867,�k�k��,3.4,��
2017/09/14,09:20,0.940,1.496,0.976,1.782,1.240,0.512,0.942,0.867,�k��,2.0,��
2017/09/14,09:30,0.939,1.491,0.976,1.784,1.241,0.513,0.943,0.867,�k�k��,2.2,��
2017/09/14,09:40,0.939,1.496,0.975,1.783,1.240,0.511,0.942,0.866,�k��,3.7,��
2017/09/14,09:50,0.941,1.491,0.975,1.782,1.239,0.512,0.942,0.866,�k��,3.5,��
2017/09/14,10:00,0.939,1.495,0.977,1.788,1.242,0.511,0.944,0.866,�k��,3.7,��
2017/09/14,10:10,0.942,1.494,0.977,1.783,1.242,0.513,0.943,0.867,�k��,3.9,��
2017/09/14,10:20,0.942,1.499,0.978,1.785,1.243,0.512,0.944,0.865,�k��,3.5,��
2017/09/14,10:30,0.943,1.499,0.977,1.783,1.240,0.511,0.943,0.867,���k��,3.2,��
2017/09/14,10:40,0.942,1.499,0.977,1.785,1.243,0.511,0.941,0.865,���k��,3.3,��
2017/09/14,10:50,0.942,1.496,0.977,1.782,1.245,0.514,0.942,0.868,���k��,3.1,��
2017/09/14,11:00,0.945,1.499,0.979,1.785,1.245,0.513,0.944,0.865,���쓌,1.7,��
2017/09/14,11:10,0.943,1.499,0.977,1.784,1.245,0.513,0.943,0.869,���쓌,3.3,��
2017/09/14,11:20,0.945,1.501,0.980,1.787,1.244,0.512,0.943,0.866,��,2.9,��
2017/09/14,11:30,0.944,1.501,0.978,1.785,1.245,0.513,0.942,0.866,���쓌,3.9,��
2017/09/14,11:40,0.944,1.502,0.979,1.786,1.246,0.513,0.943,0.867,���쓌,3.0,��
2017/09/14,11:50,0.944,1.504,0.979,1.787,1.247,0.512,0.945,0.866,�쓌,3.8,��
2017/09/14,12:00,0.946,1.503,0.980,1.786,1.250,0.513,0.942,0.866,�쓌,3.9,��
2017/09/14,12:10,0.945,1.504,0.981,1.786,1.247,0.514,0.943,0.866,�쓌,4.0,��
2017/09/14,12:20,0.946,1.506,0.978,1.784,1.250,0.515,0.944,0.868,�쓌,4.1,��
2017/09/14,12:30,0.945,1.506,0.980,1.783,1.248,0.514,0.944,0.865,�쓌,3.8,��
2017/09/14,12:40,0.947,1.507,0.980,1.784,1.248,0.513,0.943,0.868,�쓌,3.2,��
2017/09/14,12:50,0.945,1.507,0.982,1.785,1.250,0.513,0.942,0.867,�쓌,3.3,��
2017/09/14,13:00,0.945,1.505,0.982,1.784,1.251,0.514,0.944,0.867,��,2.6,��
2017/09/14,13:10,0.945,1.507,0.982,1.784,1.247,0.513,0.944,0.868,��,2.5,��
2017/09/14,13:20,0.945,1.509,0.981,1.785,1.249,0.515,0.943,0.867,���쓌,2.8,��
2017/09/14,13:30,0.948,1.506,0.981,1.785,1.250,0.513,0.944,0.867,���쓌,2.0,��
2017/09/14,13:40,0.946,1.506,0.982,1.784,1.251,0.514,0.943,0.866,��,1.9,��
2017/09/14,13:50,0.947,1.508,0.983,1.787,1.251,0.514,0.944,0.867,���쓌,1.9,��
2017/09/14,14:00,0.946,1.503,0.980,1.785,1.250,0.514,0.945,0.866,���쓌,1.5,��
2017/09/14,14:10,0.947,1.504,0.981,1.788,1.249,0.514,0.941,0.866,���쓌,2.3,��
2017/09/14,14:20,0.947,1.508,0.981,1.787,1.251,0.511,0.944,0.868,�쓌,2.6,��
2017/09/14,14:30,0.947,1.507,0.981,1.786,1.247,0.513,0.942,0.866,��쓌,2.9,��
2017/09/14,14:40,0.947,1.507,0.981,1.785,1.248,0.514,0.944,0.866,�쓌,2.5,��
2017/09/14,14:50,0.947,1.506,0.982,1.786,1.251,0.514,0.943,0.867,�쓌,2.3,��
2017/09/14,15:00,0.947,1.506,0.982,1.787,1.249,0.514,0.942,0.866,��쓌,1.7,��
2017/09/14,15:10,0.946,1.509,0.982,1.789,1.250,0.513,0.941,0.868,��쓌,1.7,��
2017/09/14,15:20,0.949,1.511,0.982,1.789,1.249,0.514,0.943,0.867,��쓌,1.9,��
2017/09/14,15:30,0.947,1.511,0.985,1.787,1.250,0.515,0.945,0.868,��쓌,2.6,��
2017/09/14,15:40,0.947,1.510,0.981,1.787,1.252,0.516,0.944,0.868,���쓌,2.0,��
2017/09/14,15:50,0.946,1.511,0.982,1.787,1.252,0.515,0.944,0.867,���쓌,1.2,��
2017/09/14,16:00,0.945,1.512,0.983,1.783,1.250,0.516,0.944,0.868,�쓌,1.5,��
2017/09/14,16:10,0.945,1.508,0.983,1.785,1.252,0.514,0.945,0.867,�쓌,1.5,��
2017/09/14,16:20,0.947,1.511,0.982,1.783,1.250,0.515,0.944,0.868,���쓌,2.2,��
2017/09/14,16:30,0.947,1.513,0.981,1.789,1.249,0.516,0.944,0.868,��,1.9,��
2017/09/14,16:40,0.949,1.512,0.981,1.785,1.251,0.518,0.942,0.869,���k��,1.7,��
2017/09/14,16:50,0.950,1.511,0.983,1.784,1.250,0.517,0.943,0.869,���k��,0.9,��
2017/09/14,17:00,0.948,1.513,0.985,1.788,1.253,0.518,0.944,0.869,��,1.5,��
2017/09/14,17:10,0.948,1.513,0.985,1.787,1.251,0.518,0.943,0.868,���k��,1.5,��
2017/09/14,17:20,0.945,1.513,0.985,1.787,1.252,0.518,0.945,0.869,�k��,1.5,��
2017/09/14,17:30,0.947,1.513,0.984,1.788,1.251,0.517,0.943,0.871,�k��,1.7,��
2017/09/14,17:40,0.946,1.513,0.987,1.790,1.250,0.517,0.947,0.870,�k�k��,2.2,��
2017/09/14,17:50,0.948,1.513,0.985,1.789,1.254,0.518,0.944,0.870,�k,1.4,��
2017/09/14,18:00,0.948,1.519,0.986,1.788,1.255,0.516,0.945,0.868,�k�k��,1.5,��
2017/09/14,18:10,0.949,1.517,0.986,1.788,1.252,0.517,0.944,0.868,�k,2.3,��
2017/09/14,18:20,0.950,1.515,0.987,1.789,1.255,0.516,0.945,0.870,�k�k��,2.3,��
2017/09/14,18:30,0.949,1.515,0.987,1.789,1.255,0.515,0.946,0.869,�k,2.6,��
2017/09/14,18:40,0.950,1.515,0.987,1.791,1.256,0.517,0.944,0.870,�k,2.8,��
2017/09/14,18:50,0.950,1.516,0.986,1.790,1.253,0.515,0.946,0.870,�k,2.9,��
2017/09/14,19:00,0.950,1.516,0.986,1.791,1.255,0.517,0.945,0.870,�k�k��,2.2,��
2017/09/14,19:10,0.948,1.513,0.988,1.791,1.255,0.515,0.946,0.868,�k�k��,2.6,��
2017/09/14,19:20,0.949,1.512,0.986,1.788,1.255,0.516,0.942,0.870,�k,2.9,��
2017/09/14,19:30,0.948,1.515,0.984,1.789,1.254,0.517,0.944,0.870,�k,3.6,��
2017/09/14,19:40,0.949,1.513,0.987,1.789,1.253,0.515,0.945,0.870,�k,4.1,��
2017/09/14,19:50,0.949,1.515,0.986,1.790,1.254,0.516,0.946,0.870,�k,4.7,��
2017/09/14,20:00,0.950,1.515,0.987,1.789,1.254,0.514,0.944,0.869,�k�k��,3.3,��
2017/09/14,20:10,0.951,1.515,0.985,1.789,1.254,0.514,0.945,0.868,�k��,2.6,��
2017/09/14,20:20,0.947,1.514,0.987,1.790,1.254,0.517,0.944,0.868,�k��,3.2,��
2017/09/14,20:30,0.951,1.513,0.986,1.790,1.254,0.517,0.944,0.868,�k��,4.3,��
2017/09/14,20:40,0.949,1.514,0.987,1.789,1.254,0.516,0.944,0.869,�k��,4.6,��
2017/09/14,20:50,0.950,1.515,0.985,1.787,1.252,0.516,0.944,0.871,�k��,4.3,��
2017/09/14,21:00,0.947,1.516,0.985,1.789,1.256,0.515,0.943,0.869,�k��,4.9,��
2017/09/14,21:10,0.948,1.516,0.984,1.789,1.253,0.516,0.945,0.868,�k��,5.3,��
2017/09/14,21:20,0.949,1.515,0.986,1.787,1.254,0.516,0.944,0.872,�k��,5.9,��
2017/09/14,21:30,0.948,1.512,0.988,1.791,1.253,0.515,0.943,0.868,�k��,6.7,��
2017/09/14,21:40,0.949,1.515,0.987,1.789,1.252,0.516,0.944,0.871,�k��,7.1,��
2017/09/14,21:50,0.949,1.515,0.987,1.790,1.252,0.517,0.943,0.868,�k��,7.8,��
2017/09/14,22:00,0.948,1.512,0.986,1.789,1.252,0.515,0.946,0.870,�k��,7.4,��
2017/09/14,22:10,0.949,1.513,0.986,1.792,1.251,0.516,0.945,0.872,�k��,7.1,��
2017/09/14,22:20,0.949,1.513,0.985,1.790,1.254,0.516,0.944,0.870,�k��,7.2,��
2017/09/14,22:30,0.948,1.513,0.985,1.793,1.254,0.515,0.944,0.869,�k��,6.9,��
2017/09/14,22:40,0.948,1.512,0.986,1.789,1.252,0.516,0.944,0.870,�k��,6.5,��
2017/09/14,22:50,0.947,1.509,0.986,1.793,1.255,0.516,0.944,0.871,�k��,6.3,��
2017/09/14,23:00,0.948,1.513,0.986,1.789,1.255,0.514,0.945,0.870,�k��,5.2,��
2017/09/14,23:10,0.948,1.513,0.990,1.791,1.253,0.516,0.945,0.872,���k��,3.9,��
2017/09/14,23:20,0.949,1.515,0.987,1.791,1.254,0.516,0.944,0.870,�k��,5.1,��
2017/09/14,23:30,0.949,1.515,0.986,1.789,1.255,0.516,0.945,0.869,�k��,5.1,��
2017/09/14,23:40,0.949,1.514,0.985,1.792,1.254,0.514,0.943,0.871,�k��,5.2,��
2017/09/14,23:50,0.947,1.514,0.986,1.794,1.254,0.514,0.944,0.868,�k��,4.4,��
